RH
10 9 12 11 11 15 14 12 19 36 46 48 53 52 37 38 49 47 45 41 36 31 28 29 24 24 26 23 26 27 28 34 34 38 38 33 36 32 29 29 33 36 32 31 34 34 32 31 31 32 34 34 35 34 34 31 27 25 25 27 31 38 43 60 76 78 79 81 82 83 79 77 77 81 82 83 85 79 79 80 79 78 79 83 82 85 87 84 80 81 79 78 78 77 78 76 73
9 12 15 12 13 13 10 14 30 52 57 48 47 45 37 46 54 46 46 44 39 35 30 28 23 22 23 23 24 31 35 39 42 41 37 35 36 34 33 31 33 41 39 33 34 36 33 32 33 34 35 36 37 36 36 32 27 23 23 24 26 30 33 45 62 70 77 80 82 83 80 79 78 80 81 83 86 81 81 84 83 79 83 88 86 88 89 87 82 79 78 80 82 79 77 74 70
12 14 15 13 14 10 17 24 36 63 63 50 42 41 45 48 48 44 43 38 34 35 30 23 22 23 23 27 29 35 37 38 44 42 35 35 34 33 35 34 33 40 42 35 34 36 34 33 34 35 36 38 38 39 38 34 28 22 21 20 20 24 27 33 41 50 61 73 80 83 81 79 78 78 79 82 83 83 85 86 85 83 85 88 85 87 89 86 84 80 78 80 82 79 74 68 65
14 16 14 13 15 15 40 50 56 71 52 51 51 42 49 46 46 47 37 29 33 34 29 26 23 23 25 32 35 34 35 39 42 37 32 35 35 31 31 32 34 36 40 36 33 34 34 34 35 36 37 39 40 40 40 37 31 25 25 22 19 18 20 25 29 34 41 51 64 75 81 81 82 79 79 82 80 81 84 85 86 86 86 87 82 83 87 84 84 82 78 78 79 77 69 61 58
14 18 15 12 20 24 46 56 70 73 43 57 57 39 48 45 48 48 31 23 28 32 32 35 33 28 28 31 35 37 38 40 39 37 36 36 35 31 29 29 31 31 34 35 33 34 33 34 35 36 38 39 40 41 41 41 36 30 28 27 26 21 17 17 20 25 29 33 40 50 62 73 82 84 82 81 81 80 81 82 83 85 84 84 83 83 85 84 85 84 81 80 80 78 70 64 60
13 17 15 12 20 25 49 57 63 61 44 60 49 36 49 42 42 40 26 19 21 28 31 37 40 35 32 30 32 36 38 41 42 47 43 34 34 33 32 28 28 29 29 32 32 33 33 34 35 35 38 38 40 41 42 42 41 37 31 30 30 29 24 18 15 16 20 24 27 32 41 51 65 76 82 83 84 84 82 82 82 83 81 82 84 84 87 89 88 85 82 82 81 79 75 71 67
13 16 17 23 30 32 59 62 55 58 47 49 42 37 44 37 33 32 28 23 21 22 26 33 34 34 33 31 29 29 37 48 50 52 43 34 37 35 29 25 26 29 29 31 29 29 30 32 35 36 36 37 38 39 41 41 43 42 38 35 32 32 31 27 20 16 16 19 21 25 31 35 43 55 70 80 84 86 84 83 83 83 83 83 82 80 86 88 86 84 84 84 81 80 79 75 73
14 17 16 34 52 53 65 59 54 64 50 40 41 38 36 37 30 30 36 29 28 28 27 30 30 34 35 28 25 30 39 42 38 39 40 39 38 29 24 23 25 27 30 33 29 29 28 29 31 34 36 37 38 38 39 39 41 42 42 41 38 35 33 33 29 22 18 17 20 22 26 29 35 41 52 64 73 80 82 85 86 85 85 85 82 79 83 84 83 85 86 85 82 81 81 80 78
13 17 24 40 54 60 66 57 53 54 47 43 42 38 34 37 30 30 40 33 32 33 29 28 30 33 34 26 22 33 34 26 25 28 34 35 30 23 22 22 25 26 28 31 29 29 28 29 28 27 30 31 35 38 39 39 39 40 41 43 43 40 36 35 34 29 23 18 19 20 24 27 34 41 48 54 61 68 74 80 83 85 87 86 86 86 86 85 86 87 87 87 83 83 84 84 83
12 19 32 49 58 59 59 55 59 47 41 49 43 38 35 36 31 29 39 36 34 34 29 29 30 31 33 30 26 33 28 21 24 23 26 26 23 22 22 20 22 22 22 25 24 24 26 30 30 27 26 25 28 32 38 40 41 40 40 40 41 43 40 36 35 34 30 24 20 19 21 23 28 39 51 58 61 63 65 70 75 81 86 87 88 90 89 87 89 91 90 88 85 87 87 85 84
20 28 29 55 72 60 53 53 60 55 51 58 45 36 36 34 30 31 38 34 34 34 29 31 33 32 33 30 29 30 24 22 24 22 23 22 22 21 19 18 19 19 19 20 20 20 21 25 29 31 30 28 27 29 35 39 41 42 42 42 40 41 42 40 37 35 34 30 25 21 19 21 23 30 44 57 65 67 65 68 72 76 83 87 87 89 92 92 92 93 93 91 87 90 90 87 86
28 51 52 62 69 55 57 56 53 65 69 61 41 33 35 32 30 35 40 35 36 35 30 33 34 34 35 32 27 24 21 22 22 22 23 21 21 20 18 17 17 17 18 19 19 19 19 19 23 27 30 31 30 29 33 40 44 44 44 46 44 41 41 42 40 37 36 34 31 26 22 21 22 24 32 46 62 70 70 73 75 75 78 82 85 89 92 93 92 91 93 93 90 91 91 90 91
31 60 74 65 61 61 64 58 55 67 68 56 38 33 34 29 30 35 37 38 40 37 32 32 33 33 34 30 23 20 21 21 21 21 21 20 20 19 18 17 16 17 18 19 19 19 19 20 21 24 29 32 32 30 32 40 45 45 45 47 49 47 43 42 42 41 38 37 35 31 27 23 22 23 26 34 49 65 72 74 76 77 76 76 81 85 87 90 91 91 93 92 91 93 91 90 91
32 42 66 68 68 73 62 52 58 58 53 54 40 31 33 28 30 32 36 43 39 33 30 28 31 32 30 29 24 21 21 20 21 20 19 19 19 20 18 18 17 17 18 19 19 19 20 20 21 24 28 33 35 35 35 38 39 41 43 44 48 51 50 46 43 43 41 39 38 36 32 28 25 23 24 26 34 49 64 72 74 76 77 79 80 80 84 87 88 90 91 90 91 90 91 92 91
30 29 63 80 70 65 52 46 61 59 50 51 39 32 34 28 31 32 35 43 36 28 28 26 28 30 28 31 28 22 21 20 21 20 20 20 20 21 20 20 19 17 18 19 20 20 20 20 21 23 27 33 36 38 39 40 38 37 40 41 43 47 52 53 49 45 44 42 41 39 36 33 30 27 25 24 26 33 48 63 70 72 74 80 81 79 82 83 83 86 88 90 93 92 92 94 91
26 29 69 83 60 50 44 48 60 56 48 49 37 33 35 28 32 33 34 38 34 27 26 26 26 28 27 29 27 22 22 21 21 21 21 21 21 21 21 23 22 20 19 18 20 21 21 21 20 21 24 30 37 40 42 42 40 38 38 39 41 44 48 53 55 52 47 45 43 42 40 38 35 32 30 27 26 26 35 48 57 63 67 76 80 79 79 80 84 87 90 92 94 92 93 93 92
18 35 72 70 53 44 45 54 51 40 43 49 37 34 40 36 31 31 34 34 32 26 23 25 25 27 27 26 24 22 23 22 23 23 22 23 22 22 22 23 23 22 21 18 19 20 22 22 21 23 23 26 31 35 36 37 37 36 35 35 37 42 47 51 55 58 55 51 47 45 43 42 40 37 35 32 30 28 31 39 47 55 61 70 76 78 80 86 90 90 92 94 93 91 93 94 93
25 62 67 44 49 49 51 59 48 41 46 45 35 36 44 41 33 31 33 32 31 25 21 24 24 25 25 24 23 23 25 24 24 24 23 24 23 24 23 24 24 23 22 21 20 20 20 21 21 22 23 24 25 26 27 29 30 30 31 32 33 37 47 53 57 61 61 58 53 48 46 44 43 42 40 37 36 33 32 38 46 56 63 68 73 78 84 89 92 92 94 96 96 94 95 97 97
39 78 61 39 59 52 42 49 43 41 42 39 36 38 41 39 35 33 36 35 32 27 24 24 24 25 24 22 22 23 25 23 23 24 24 24 24 24 24 24 24 23 23 23 23 22 21 21 20 21 23 24 23 25 25 26 28 29 29 31 32 34 44 56 61 64 65 65 60 53 49 46 45 46 45 42 40 38 35 37 43 49 57 65 70 76 84 92 95 93 96 98 98 96 96 98 100
35 57 54 49 63 50 35 37 37 36 37 39 37 38 40 36 34 35 39 40 37 31 26 26 26 27 24 22 22 23 24 22 22 23 24 24 24 24 24 25 24 24 24 24 25 24 24 23 23 23 24 24 24 24 24 25 26 27 27 28 31 34 44 56 63 66 68 68 64 58 52 49 50 52 53 49 44 41 39 40 42 42 48 59 71 81 89 95 97 94 93 96 97 93 95 100 100
36 43 48 44 46 46 38 34 36 35 37 39 37 41 38 33 35 36 36 42 44 31 24 27 28 26 24 22 24 24 22 22 23 23 24 24 24 24 24 25 24 25 25 26 26 26 27 26 26 26 25 25 25 25 24 24 25 25 26 27 29 32 38 52 63 66 67 67 65 62 57 56 57 58 60 57 51 46 44 46 47 47 50 57 70 85 94 96 97 98 94 93 92 90 92 97 99
36 37 43 39 41 48 39 34 37 36 37 39 41 42 36 33 36 34 35 40 40 27 24 27 25 24 23 23 24 23 21 22 23 23 24 24 24 25 25 26 26 26 26 27 28 28 28 27 27 27 27 27 27 27 27 27 27 27 27 26 27 28 31 40 52 58 60 65 68 66 62 60 61 62 63 61 58 54 51 52 54 56 54 63 77 82 88 94 98 98 91 85 85 86 87 91 99
33 35 43 39 42 46 36 35 38 37 40 40 40 40 36 37 36 32 33 33 29 24 25 25 22 22 22 25 24 21 21 22 23 24 24 25 24 25 25 26 26 27 28 28 28 27 24 23 23 22 23 24 25 26 27 28 29 29 29 28 26 27 28 29 36 43 48 55 61 65 63 61 63 65 65 63 62 59 55 54 60 63 59 74 96 93 84 80 84 89 85 80 80 81 82 88 98
39 43 44 40 42 42 36 37 37 37 40 38 38 40 37 38 38 35 29 25 24 23 23 21 19 21 22 25 23 20 21 22 23 24 24 25 25 25 26 26 27 28 27 26 24 22 20 19 20 20 20 20 21 22 22 24 25 26 27 28 28 27 28 28 30 34 38 45 53 61 65 63 65 67 68 65 63 61 58 56 61 69 66 72 93 102 95 76 71 83 85 81 79 80 82 87 94
48 46 41 44 43 39 37 35 34 34 34 33 36 38 35 33 37 35 26 22 23 21 20 20 18 19 23 24 21 20 21 21 23 23 25 25 25 26 27 27 27 26 24 21 19 17 16 17 18 19 19 20 20 20 20 20 20 22 22 24 27 28 29 29 33 35 39 49 58 67 72 69 69 70 70 67 65 61 57 57 59 68 70 69 82 92 93 85 81 89 88 81 77 79 84 90 97
45 45 44 49 44 39 38 32 31 32 29 31 36 38 33 31 36 32 22 20 21 19 19 20 18 18 23 24 21 22 21 23 23 23 25 25 25 26 26 27 26 25 22 18 16 14 13 13 15 17 19 20 21 21 20 20 20 21 22 23 24 28 31 30 34 40 45 56 66 76 82 79 76 75 73 69 67 62 56 55 55 61 66 75 91 94 93 97 96 95 92 85 80 82 89 95 99
46 50 50 50 44 40 35 29 30 31 26 29 36 41 36 32 37 32 20 20 20 19 20 18 17 19 23 24 22 24 23 23 23 23 25 24 25 24 24 24 24 24 20 15 14 13 13 12 13 15 18 20 21 21 21 20 21 21 23 25 26 27 30 30 31 38 46 58 73 84 90 86 82 79 76 73 70 65 58 53 50 55 66 81 94 95 97 101 98 97 94 89 86 88 95 99 98
50 52 51 48 40 34 32 29 30 31 28 29 37 42 36 35 41 32 19 21 21 19 20 16 16 20 23 24 23 24 25 24 24 23 24 23 23 22 23 24 24 23 17 14 13 13 14 13 13 14 17 19 20 21 21 20 20 21 22 24 27 28 30 31 30 34 40 55 74 86 93 92 86 83 79 76 74 69 62 57 54 54 70 89 91 90 97 98 98 100 95 90 88 90 97 100 98
53 51 53 59 50 40 34 29 29 30 30 30 33 33 31 38 39 25 18 20 22 21 20 17 16 19 22 24 24 24 24 24 24 23 23 22 22 22 24 25 23 19 15 13 13 13 14 13 14 14 15 17 18 19 20 20 20 20 22 22 25 28 30 32 32 34 38 49 66 79 91 93 87 85 83 80 78 75 68 64 63 64 81 96 95 94 97 98 99 99 97 93 89 91 98 100 99
54 54 57 66 58 51 38 28 32 28 29 32 29 30 31 36 30 18 21 24 25 25 22 19 16 18 22 24 24 23 24 23 24 23 24 23 22 23 25 24 20 16 14 14 15 16 15 14 14 14 14 15 15 17 17 18 18 19 21 23 24 27 31 34 35 37 41 49 59 69 82 90 89 88 86 82 80 79 74 74 77 81 93 99 99 100 97 97 100 99 99 97 92 91 98 101 99
60 52 66 77 54 58 48 30 38 29 31 35 30 39 37 30 25 18 24 29 30 29 27 23 18 17 20 24 25 23 22 23 23 23 24 23 22 23 24 22 19 16 15 16 19 18 17 15 14 14 14 15 15 15 15 16 17 17 20 23 24 27 31 35 37 40 46 54 62 67 76 88 92 88 85 81 78 80 78 83 92 91 93 98 98 97 95 97 99 99 99 99 96 90 94 101 99
74 42 60 81 52 64 58 31 42 38 37 37 32 47 46 32 28 25 28 32 33 31 29 27 20 17 18 22 25 23 22 21 21 22 23 23 21 22 22 21 18 16 15 17 19 17 16 16 14 15 15 15 15 14 15 16 16 17 19 22 24 27 32 38 40 41 48 58 66 73 80 89 91 85 83 80 76 80 81 81 90 93 93 97 98 95 95 96 94 97 99 98 99 92 91 97 100
80 48 52 72 55 62 53 30 43 47 44 42 35 44 47 37 29 29 33 33 34 34 32 28 22 19 17 19 23 24 23 21 21 21 22 22 21 20 20 21 18 16 16 16 16 16 16 15 14 15 15 15 16 15 15 15 17 19 20 22 24 26 32 43 47 45 50 62 71 77 84 89 89 83 80 80 77 80 84 81 84 94 96 93 94 94 91 90 91 96 100 98 100 97 92 91 97
67 60 56 68 62 57 51 42 44 48 49 48 51 52 47 42 34 33 36 36 36 35 32 28 25 22 19 19 21 24 23 22 20 20 22 23 21 20 20 21 19 16 18 16 16 16 15 15 15 15 16 17 16 15 14 14 16 19 21 23 24 26 30 42 55 58 64 77 85 86 87 88 85 83 81 79 78 77 82 83 81 91 98 94 91 91 91 94 96 96 97 99 100 100 97 92 92
51 57 58 63 62 56 59 56 48 54 59 57 61 59 50 46 42 37 37 38 37 34 32 30 28 25 22 21 19 22 24 22 19 20 24 24 23 22 21 21 18 17 19 17 17 18 17 16 15 15 16 18 18 18 17 16 16 19 23 25 26 28 28 34 49 63 72 82 92 93 92 90 82 86 91 85 79 74 76 83 81 82 94 99 96 96 98 99 99 98 97 99 99 99 100 98 94
54 64 66 60 58 57 63 62 56 60 63 61 60 59 56 51 49 43 37 37 36 33 33 31 29 26 24 22 19 21 23 21 19 21 24 25 24 23 22 22 18 18 19 18 19 20 19 17 16 14 14 15 16 19 20 19 19 19 23 27 28 30 30 31 38 55 72 82 91 93 92 93 88 90 93 88 82 77 76 85 87 81 86 97 99 98 98 96 96 98 99 100 100 99 100 99 99
60 63 62 59 58 59 59 57 61 60 58 66 69 68 65 54 50 45 37 38 37 35 34 29 27 25 23 21 19 20 21 21 21 22 24 24 25 23 23 22 18 19 20 18 20 19 18 19 18 16 14 14 15 17 21 22 22 21 23 27 30 30 32 35 37 48 65 77 87 89 86 91 97 97 90 85 87 85 83 90 91 86 87 96 100 98 99 99 98 98 99 99 100 99 100 100 99
61 59 55 61 66 63 56 52 65 65 55 66 76 70 60 49 46 41 36 39 37 34 33 28 25 23 22 20 19 19 18 21 22 22 25 24 25 23 22 23 18 18 20 18 19 17 16 18 18 17 16 15 16 16 20 23 25 24 25 27 30 31 33 37 40 46 56 66 75 79 80 89 99 99 92 90 94 92 91 94 94 91 88 91 96 96 96 98 98 99 100 100 100 99 100 100 99
69 71 61 64 72 69 60 59 76 75 57 68 81 70 55 46 42 37 36 37 33 30 29 26 25 24 22 19 18 19 18 22 23 22 24 23 24 24 22 22 19 18 20 19 18 17 16 18 18 18 17 16 17 17 19 23 25 26 27 28 29 32 34 36 39 44 52 66 82 86 87 95 97 90 87 89 92 92 93 96 98 98 94 92 94 95 96 97 97 99 100 99 100 100 99 100 100
69 73 65 67 75 69 59 60 74 76 63 72 79 66 51 40 36 34 30 29 28 26 26 25 26 24 21 19 18 18 19 21 22 21 23 24 23 23 22 21 20 18 20 20 19 19 17 17 18 18 17 17 18 19 19 20 24 26 27 28 30 31 33 36 38 40 47 61 83 93 91 92 92 85 83 86 89 93 97 99 99 99 99 98 98 97 97 98 99 99 100 100 99 100 100 100 100
73 74 67 66 70 65 62 64 68 69 69 74 67 54 48 43 43 38 28 31 32 27 29 27 25 24 20 21 19 17 19 19 21 21 21 23 22 22 22 20 20 19 20 22 20 20 19 18 18 18 18 18 18 19 19 19 20 24 27 28 31 32 32 35 37 40 43 50 65 79 85 89 91 91 91 92 94 97 100 100 100 100 100 100 100 100 99 99 100 99 99 100 99 99 99 100 100
76 75 67 60 61 62 66 70 66 65 67 67 59 53 56 53 43 31 29 46 47 35 39 33 23 23 21 20 19 17 18 17 19 21 20 22 22 22 23 21 21 19 19 22 21 21 21 19 19 18 18 18 18 20 19 19 19 20 25 28 30 32 33 35 37 39 41 45 54 66 80 89 93 94 95 98 100 100 100 99 99 100 100 100 99 100 100 100 100 100 99 100 100 99 98 100 100
72 73 72 65 62 64 69 67 60 64 63 58 60 63 66 55 30 27 46 60 50 35 42 39 23 23 22 18 19 17 17 17 17 19 19 20 20 21 22 20 20 20 19 22 23 23 23 21 20 19 19 18 19 20 20 20 20 20 22 26 29 32 34 35 36 38 39 41 47 55 69 82 90 95 97 99 100 99 100 99 98 98 98 100 100 100 100 100 100 100 100 100 100 99 98 99 99
77 78 81 75 67 69 73 66 63 76 70 62 75 72 69 66 39 44 65 52 35 32 41 42 25 21 21 16 18 17 16 17 17 18 18 17 18 18 19 19 20 20 20 21 23 24 24 23 21 20 20 20 20 21 20 21 21 21 22 24 27 30 32 35 35 37 39 40 42 46 57 69 81 92 98 99 100 99 99 98 97 95 96 99 100 100 100 100 100 100 99 100 100 100 99 99 99
80 82 86 82 76 80 83 78 80 91 76 64 82 71 59 70 52 47 59 39 29 37 43 44 28 19 21 16 16 17 15 16 15 15 16 16 17 17 17 18 20 21 21 21 23 25 25 24 22 22 22 21 22 22 22 23 22 22 23 23 25 28 30 34 36 37 38 40 41 44 49 58 71 85 91 94 96 96 95 95 95 95 97 99 100 100 100 100 100 100 99 100 100 100 100 99 100
75 81 85 83 86 91 89 89 86 88 79 61 72 67 47 58 52 34 37 36 40 47 48 47 29 16 19 17 15 16 16 16 15 15 16 17 17 17 18 18 20 21 21 21 23 25 26 25 23 22 23 23 23 24 23 23 24 23 23 24 24 26 29 31 35 37 39 40 42 44 49 57 71 86 90 88 86 88 92 95 97 98 99 100 100 100 100 100 100 100 100 100 100 100 100 100 99
69 75 80 78 84 89 91 96 83 79 84 63 62 69 46 44 51 35 29 38 48 50 46 42 28 16 15 15 15 16 16 17 18 18 17 18 18 17 19 19 20 21 21 21 22 24 26 26 24 23 24 24 24 24 25 24 25 24 24 24 24 25 27 29 33 37 39 41 43 45 49 54 64 77 80 80 84 91 97 99 99 100 100 99 100 100 100 100 100 100 100 100 100 99 100 100 100
69 76 82 78 79 77 78 89 83 79 82 68 72 80 59 48 51 45 43 46 52 53 45 40 34 24 16 13 14 14 16 16 17 19 18 18 19 18 19 19 19 21 21 21 21 23 26 26 25 24 24 25 25 25 25 25 25 25 24 24 25 25 26 29 32 36 40 42 44 45 47 48 53 59 62 73 91 99 99 100 100 99 100 100 100 100 100 100 100 100 100 100 100 100 100 100 100
74 79 82 85 85 78 78 87 90 86 72 68 82 78 65 61 48 42 44 38 40 46 42 38 35 29 20 16 15 14 15 16 15 18 19 19 19 18 19 20 20 21 21 21 21 22 26 27 26 25 24 25 26 26 26 26 26 26 26 25 25 25 27 30 32 35 39 42 44 45 45 46 48 52 59 76 96 101 99 100 100 99 100 100 100 100 100 100 100 100 100 99 99 99 100 100 100
77 76 77 88 92 89 97 93 81 76 60 59 74 70 66 63 43 38 40 28 28 32 30 30 30 29 24 19 18 17 15 15 15 16 17 18 18 18 19 20 20 20 20 20 21 22 25 28 27 25 25 26 26 27 27 27 27 27 27 26 26 26 27 31 33 35 37 40 43 45 46 48 49 54 65 80 94 100 100 100 100 100 100 100 100 100 100 100 100 100 100 100 100 99 99 100 100
80 78 72 80 87 85 89 83 69 70 67 58 58 61 65 56 40 43 42 32 32 29 24 26 24 23 22 19 19 17 14 14 14 14 15 15 15 16 17 18 19 19 20 20 21 22 24 27 28 26 26 26 27 27 27 27 27 27 27 27 27 27 28 30 33 34 36 39 42 44 46 49 53 59 70 81 91 98 100 100 100 100 100 100 100 100 100 99 96 94 94 94 95 98 99 99 99
83 83 75 78 80 66 65 73 71 72 79 77 66 63 66 53 39 37 35 32 33 29 24 23 22 20 20 20 16 13 12 12 12 14 13 13 14 16 17 18 18 18 19 20 21 22 23 26 29 27 26 27 27 28 28 28 28 28 28 28 27 28 29 29 31 34 35 38 40 44 46 49 55 62 69 77 86 94 99 100 100 100 100 100 100 99 99 95 89 85 84 87 92 97 99 100 100
81 82 82 82 71 60 62 69 72 73 77 79 67 59 58 49 37 34 34 34 30 31 33 27 24 22 20 18 13 11 13 12 13 14 12 14 15 17 19 18 18 18 18 20 20 21 23 26 29 28 26 28 28 28 29 29 29 29 28 29 28 29 30 30 31 32 35 38 40 44 47 50 55 61 68 77 85 93 99 100 99 100 100 100 100 99 97 92 87 83 83 89 95 99 100 99 100
85 87 80 72 63 67 70 67 80 91 85 81 71 61 55 45 42 43 40 36 31 34 38 30 22 19 17 15 11 12 14 13 15 14 13 16 17 18 20 19 19 20 20 21 20 21 24 26 29 29 27 28 29 29 30 30 30 30 29 29 29 29 30 31 32 32 33 36 41 45 48 51 55 61 68 79 88 94 99 100 100 100 100 99 100 100 97 92 89 86 87 92 97 100 99 100 99
80 81 68 65 70 79 75 69 85 92 86 86 79 71 65 50 46 44 32 28 29 27 28 27 24 19 15 13 12 14 16 16 16 15 14 17 17 18 20 19 19 21 22 24 23 22 23 26 29 29 27 28 29 30 30 30 30 30 30 30 30 30 31 31 33 33 33 34 40 45 48 51 56 61 68 79 90 97 99 100 99 99 100 100 100 99 98 94 90 90 92 94 97 97 98 100 96
71 67 60 66 73 78 78 74 79 79 80 85 76 71 74 59 49 44 29 24 26 22 22 25 26 21 14 12 15 16 17 18 17 16 16 16 18 19 19 20 20 22 25 26 25 24 22 24 28 30 28 27 29 31 30 31 31 31 31 31 31 31 31 32 33 34 34 34 38 43 47 51 55 62 72 83 93 99 100 100 99 99 100 100 100 100 100 96 92 92 95 94 94 95 97 99 92
77 71 72 76 74 77 78 72 75 80 82 90 86 73 66 55 44 36 28 27 27 25 25 25 23 20 14 14 17 18 18 19 19 19 18 17 18 19 20 22 22 24 27 27 27 27 24 24 27 29 29 28 29 31 31 32 32 32 32 32 32 32 32 33 34 35 35 34 38 43 47 51 55 63 76 87 96 99 100 100 99 99 100 99 100 100 100 98 93 93 95 92 90 92 93 91 82
74 74 75 74 73 79 79 74 81 85 79 84 89 73 54 50 44 35 31 30 27 26 27 28 24 17 15 16 18 20 20 20 21 22 22 20 19 20 21 23 24 26 29 28 29 29 27 26 26 28 30 28 28 30 31 32 33 33 33 33 33 34 33 35 35 36 36 36 39 44 48 52 57 65 76 87 96 99 100 100 99 100 100 99 100 99 99 98 93 92 93 88 84 85 85 81 74
Wind_Speed
9 10 10 10 8 3 3 4 4 5 4 4 3 2 3 3 1 3 7 8 2 7 14 10 7 9 5 2 2 4 5 3 1 2 2 7 12 10 9 7 7 5 4 3 4 6 8 8 8 6 7 7 8 9 10 11 10 9 7 7 6 6 7 8 10 12 13 14 15 15 15 13 13 12 11 11 11 12 12 13 13 13 13 13 13 11 11 11 10 9 8 7 6 6 6 6 5
10 10 11 9 8 3 2 6 4 3 5 4 2 1 4 4 4 4 6 4 3 13 16 12 7 10 9 5 5 6 7 7 5 6 7 11 11 10 10 7 7 6 5 4 3 6 8 9 8 6 7 7 7 9 10 11 10 9 8 7 7 7 6 7 9 11 13 14 15 16 16 15 14 12 11 12 11 11 12 13 13 13 13 12 12 11 11 11 11 10 9 8 7 8 7 6 6
13 13 12 5 7 7 4 7 4 2 5 4 2 2 4 4 5 5 8 8 10 16 15 15 10 10 11 8 7 4 6 9 10 12 12 14 13 14 12 9 8 7 6 5 4 5 7 9 7 6 6 7 7 8 10 11 11 10 9 9 8 8 7 7 8 10 12 14 15 16 17 17 16 15 14 13 12 12 11 11 12 12 12 12 11 11 12 11 11 10 9 9 8 8 7 6 6
13 16 12 5 7 8 5 5 3 4 4 3 0 4 3 2 6 7 10 10 11 16 16 17 9 10 10 6 7 2 6 9 11 15 15 17 16 17 15 13 11 8 8 6 5 6 7 8 8 7 6 7 7 8 9 10 10 10 10 10 9 8 8 8 8 8 10 12 15 16 17 18 18 17 17 15 14 14 13 12 11 12 11 11 12 11 12 11 10 10 10 9 8 8 7 7 7
12 15 12 5 5 5 4 4 2 5 3 3 2 3 4 4 6 7 12 10 9 15 17 16 6 9 8 5 8 2 7 8 10 16 15 16 15 16 17 17 15 13 11 9 8 8 8 8 8 8 8 8 8 8 9 9 10 10 10 10 11 10 9 9 9 10 10 11 12 14 17 18 19 18 18 18 17 16 15 14 13 13 13 12 11 11 11 11 10 10 11 11 10 9 8 8 8
10 10 12 11 10 5 5 4 3 5 2 3 4 3 5 5 6 8 15 12 9 13 15 15 7 9 4 5 10 5 10 9 11 16 13 14 12 14 18 19 18 17 17 13 12 12 11 10 9 9 10 10 10 10 9 10 10 10 11 10 11 11 11 10 10 10 11 11 11 12 13 16 19 20 20 19 18 17 17 16 15 15 15 14 13 12 12 11 11 11 11 11 10 9 8 9 9
9 4 7 10 11 7 5 5 5 3 1 3 4 3 5 5 8 8 13 12 9 12 12 15 12 6 1 7 9 7 12 11 14 16 13 13 12 15 19 19 16 16 16 14 14 15 15 13 12 12 12 12 12 12 11 11 11 11 11 11 11 11 12 11 11 10 10 11 11 11 12 13 15 18 20 21 20 18 17 17 17 16 15 15 15 15 14 13 13 12 12 11 11 10 10 10 10
8 6 7 7 5 5 4 4 3 2 2 2 3 3 4 7 9 5 8 7 7 10 10 13 13 3 1 9 7 6 13 13 17 16 13 12 14 18 19 18 15 14 14 13 14 15 16 15 14 14 14 14 14 14 14 13 13 12 12 13 13 12 12 12 12 11 11 11 11 11 12 13 13 14 17 19 21 20 18 17 17 16 16 16 15 15 15 15 15 14 13 13 13 12 12 12 11
6 8 8 6 4 4 3 3 1 1 2 1 1 2 5 9 7 4 6 4 5 9 9 12 9 3 5 10 6 6 13 15 16 14 13 13 16 19 17 17 15 13 13 13 15 15 16 15 14 14 15 16 15 15 15 15 15 14 14 14 13 13 13 12 13 12 12 11 11 11 12 13 14 14 14 17 19 20 20 19 18 16 16 16 16 15 15 15 15 15 14 14 14 13 13 13 13
7 8 5 4 4 4 3 1 0 1 3 3 2 4 8 11 5 4 6 3 7 9 8 11 6 5 7 7 4 7 13 16 15 13 13 14 16 17 16 16 15 14 13 13 14 14 15 15 15 15 16 16 16 16 16 16 16 17 16 15 15 14 14 13 13 13 13 12 12 12 12 13 15 15 15 15 16 18 20 20 19 18 16 16 15 15 15 16 16 15 14 14 14 14 13 14 14
6 8 5 5 4 4 2 2 1 3 4 4 3 3 8 11 3 4 7 4 9 9 8 10 5 7 8 5 4 6 12 16 15 13 12 13 14 14 15 16 15 15 14 13 13 13 13 14 15 16 17 17 17 16 16 16 17 18 18 18 17 16 15 14 14 14 14 13 13 12 12 12 14 15 16 16 16 17 18 19 19 19 18 17 15 15 15 15 15 14 13 14 15 14 14 14 15
4 4 5 5 3 2 2 2 2 5 5 4 1 3 10 9 0 3 7 5 9 9 10 10 5 5 5 5 6 9 14 15 14 13 12 11 12 13 15 16 15 15 14 14 13 13 13 13 14 14 16 17 17 17 17 16 16 18 19 20 20 19 18 16 15 15 14 14 14 13 12 12 12 14 16 17 17 16 16 17 18 18 18 18 17 15 15 14 14 14 14 13 14 14 14 15 14
5 1 5 4 2 2 3 1 3 4 4 2 1 5 12 7 0 4 5 6 7 6 10 10 6 3 2 6 9 13 15 15 14 12 11 10 11 13 14 14 14 14 14 13 13 13 12 13 13 13 15 16 17 16 16 16 16 17 18 19 20 21 21 19 18 16 16 15 15 14 13 13 12 12 14 17 18 18 17 17 18 18 18 19 18 17 16 15 14 13 13 13 13 13 14 15 14
6 2 5 3 2 2 3 1 2 1 2 3 1 8 12 5 2 5 5 6 6 6 9 7 6 2 2 6 10 16 15 14 13 10 9 9 12 13 12 13 13 12 12 12 12 12 12 12 12 13 13 15 16 16 16 16 17 18 19 19 19 20 21 21 20 19 18 17 16 15 14 13 13 12 12 14 17 19 19 19 19 19 18 18 18 18 17 16 15 14 14 15 14 12 12 13 12
7 4 5 4 3 2 2 1 0 2 3 3 2 10 12 4 4 7 5 4 5 10 10 6 7 3 2 5 10 17 16 15 15 12 10 10 13 13 12 13 13 12 11 11 11 11 12 12 11 12 13 14 15 17 17 16 16 19 20 20 19 19 19 20 21 21 20 19 18 17 15 14 14 13 12 12 14 18 20 21 21 20 20 19 19 18 18 17 16 15 15 14 12 12 12 11 12
8 5 5 3 2 0 2 2 2 3 4 3 1 10 11 5 6 8 7 6 7 12 9 6 9 7 7 8 12 17 16 17 16 14 13 13 14 13 13 14 14 13 11 11 11 11 12 12 12 12 12 13 14 15 17 17 17 19 21 20 19 18 18 19 19 20 20 20 20 19 17 16 15 14 14 13 12 14 17 21 22 22 22 22 20 19 19 18 17 15 14 13 12 12 12 11 12
6 5 5 3 2 1 2 3 2 2 5 5 4 11 7 5 9 9 10 7 8 12 8 6 10 12 13 12 14 16 16 17 16 14 14 13 13 13 13 13 14 13 12 12 12 12 11 11 12 12 12 12 12 13 14 16 17 19 20 19 19 18 18 17 18 18 19 19 20 21 20 18 17 16 15 14 13 13 14 17 20 21 22 23 22 20 19 18 17 16 14 14 13 13 14 13 13
5 3 4 3 2 2 3 5 4 2 3 6 10 10 3 5 10 12 10 6 11 11 7 8 10 13 13 13 14 15 15 16 15 14 13 13 13 13 13 14 15 14 14 14 13 13 13 12 13 13 13 12 12 13 14 15 17 18 18 17 17 18 17 17 16 16 17 18 18 20 20 20 19 18 17 16 14 14 14 15 17 18 19 21 22 21 18 18 18 17 15 15 15 16 15 15 14
6 3 4 2 4 3 3 4 3 2 4 10 13 9 4 5 8 11 7 8 14 9 7 11 12 15 15 15 16 15 16 16 14 13 13 13 13 14 13 15 16 14 15 16 15 14 14 14 15 15 13 14 14 15 17 18 18 19 18 17 16 16 16 16 15 14 15 16 17 18 19 19 20 19 19 18 17 15 14 15 16 17 18 19 21 20 17 17 18 19 18 17 19 18 16 14 14
4 3 3 3 5 4 6 6 5 6 8 11 12 9 7 6 6 8 3 7 11 5 6 9 12 19 19 18 17 17 17 15 13 12 12 12 12 13 13 15 16 15 16 16 16 15 15 15 15 16 15 16 17 17 19 20 20 20 19 18 16 16 15 14 13 12 13 14 15 15 16 17 19 19 20 20 19 18 15 15 16 16 17 18 18 17 16 17 18 19 20 20 20 18 16 15 15
3 3 4 4 2 2 6 6 8 10 9 10 11 10 10 8 7 7 3 4 6 4 7 9 13 19 21 19 18 18 17 14 13 12 12 12 12 13 14 15 15 15 16 16 16 16 16 17 16 16 16 17 17 18 18 19 20 20 19 18 17 16 15 14 11 10 11 12 13 13 14 15 17 18 19 20 20 19 16 15 16 15 15 16 15 15 16 18 18 20 21 20 20 20 18 17 16
3 2 4 2 2 3 8 9 9 9 9 10 10 8 8 9 8 7 4 2 6 7 8 11 15 18 19 18 18 17 14 13 13 11 12 12 13 13 14 14 14 15 16 16 17 17 18 18 18 18 17 17 17 18 18 18 19 20 20 19 18 16 15 14 12 11 11 12 12 12 13 15 16 17 18 18 19 20 18 16 16 15 14 13 14 16 17 18 19 21 21 19 19 19 20 18 17
2 2 1 3 0 5 11 12 12 12 11 11 8 7 8 8 8 7 6 7 8 8 7 11 15 15 14 14 15 14 12 12 12 12 12 12 13 13 13 14 14 15 16 17 18 18 19 19 19 19 19 19 18 19 19 19 19 19 19 19 19 17 15 13 13 13 13 13 13 13 13 14 16 16 17 18 18 19 19 17 16 17 15 12 14 16 17 18 18 19 18 16 15 16 16 16 15
3 2 4 7 5 8 13 15 15 13 12 11 9 9 10 7 4 5 8 7 4 3 5 13 15 12 11 11 12 10 10 11 10 11 12 12 13 12 13 13 14 16 16 18 18 19 19 19 19 19 19 20 20 20 20 19 19 19 19 18 18 18 17 15 13 13 14 14 14 15 14 14 15 14 16 17 17 17 18 17 15 17 17 14 15 15 17 18 14 13 13 12 12 12 12 12 12
5 2 7 10 11 12 14 14 12 10 10 10 8 9 12 10 6 7 7 2 2 2 6 14 13 9 8 10 10 8 8 9 9 11 10 11 12 11 11 12 13 15 17 18 18 19 19 19 20 19 20 20 21 21 20 20 19 19 18 17 16 16 17 16 15 15 15 16 16 16 15 14 14 13 13 15 16 16 16 17 15 15 16 15 16 16 17 17 13 9 9 10 10 10 10 10 10
3 5 12 14 15 15 12 10 7 8 10 9 7 9 14 11 6 7 7 5 3 1 6 14 11 5 6 9 9 7 7 7 9 10 9 10 11 11 11 12 13 15 17 18 17 18 19 20 20 20 21 21 22 22 21 20 19 19 18 17 15 14 15 16 16 16 16 17 17 17 15 14 14 13 12 13 13 14 14 16 15 14 13 13 15 15 15 13 12 9 7 8 9 9 10 10 10
6 10 14 14 16 14 7 6 6 9 8 7 6 9 16 9 5 5 9 8 4 4 7 14 8 1 4 8 7 5 5 6 8 9 9 10 10 11 12 12 14 16 17 18 18 18 18 19 19 20 21 21 22 21 20 20 19 19 18 17 14 12 13 14 15 16 16 16 17 17 15 13 13 13 12 13 12 12 13 14 14 13 10 11 15 16 14 12 11 9 7 8 9 9 10 10 11
9 11 12 12 14 9 4 4 6 9 5 6 8 10 10 3 5 6 13 9 4 4 9 13 7 1 2 5 4 2 4 5 7 8 9 10 11 11 12 12 14 16 17 18 19 20 19 19 18 19 20 21 21 20 20 19 18 19 18 18 16 13 12 12 14 15 16 16 16 16 14 13 13 12 12 13 13 13 13 13 13 12 9 10 12 13 13 12 11 10 9 9 9 10 10 10 10
6 7 6 9 12 6 4 5 6 9 3 7 11 8 5 1 8 9 14 6 4 5 11 12 6 1 2 2 2 2 3 5 6 8 9 10 11 11 11 12 13 15 16 18 20 21 21 20 19 19 19 20 20 19 19 19 18 18 18 18 16 14 12 12 12 13 14 15 16 15 13 12 11 11 11 12 13 14 13 13 12 10 8 8 9 9 10 11 11 11 11 10 9 10 10 11 11
3 4 2 4 9 5 5 6 7 8 3 8 11 4 6 7 11 8 6 4 4 7 16 12 6 1 3 1 2 5 5 6 7 8 9 9 9 10 10 11 12 14 15 18 19 21 22 22 20 19 18 18 19 18 18 18 17 16 16 17 17 15 13 11 11 11 12 13 14 14 12 11 11 10 9 11 14 15 15 13 11 8 9 11 11 10 9 10 11 12 12 11 9 8 10 12 14
1 2 2 3 2 5 6 6 7 7 3 9 9 1 7 11 14 10 6 4 6 16 21 16 8 0 5 4 3 6 7 7 9 9 9 8 9 9 9 10 12 13 16 19 20 21 22 22 20 18 18 17 17 18 18 18 17 16 15 15 16 15 13 11 10 9 10 11 12 12 12 12 9 7 9 12 14 16 16 13 11 9 11 13 12 10 10 10 10 12 14 12 10 8 9 13 16
2 1 3 3 1 6 9 6 5 4 4 8 6 2 8 10 11 7 4 6 15 23 25 20 13 4 6 7 5 7 9 9 10 11 10 9 9 9 9 10 11 12 15 20 21 21 23 23 21 19 18 17 17 18 18 17 17 15 14 14 14 14 13 11 9 9 9 9 9 10 12 14 8 4 10 13 14 16 16 13 10 8 8 11 10 10 11 10 9 12 15 14 13 10 9 13 16
3 1 2 2 1 3 7 4 5 5 3 5 4 1 7 8 6 5 6 17 25 25 25 21 18 13 7 10 8 8 12 12 12 12 11 10 9 9 9 10 10 9 13 18 19 20 23 23 21 19 19 18 18 18 18 17 16 15 14 13 13 13 13 11 9 8 8 7 7 7 9 12 7 4 10 12 13 15 15 13 8 8 9 8 8 11 10 10 9 11 14 15 16 14 12 13 15
3 2 1 3 2 2 4 4 6 8 4 4 3 2 9 12 17 24 21 21 26 26 26 23 22 20 10 12 11 10 13 16 14 14 13 12 10 10 10 11 11 8 11 16 18 20 22 22 21 20 19 19 18 17 17 17 16 16 15 14 13 13 12 11 9 7 8 8 8 8 7 7 7 6 9 10 11 13 15 14 10 10 14 10 8 11 12 13 11 10 13 16 17 18 16 15 16
2 0 1 3 2 3 3 4 4 8 5 5 4 4 12 14 19 32 31 20 21 25 26 26 26 24 14 12 14 13 16 18 15 14 15 14 12 12 12 12 11 9 10 14 16 19 22 22 22 21 20 19 19 18 17 17 16 16 15 15 14 13 12 11 9 7 7 8 8 8 6 5 7 9 9 7 8 10 13 15 12 11 14 13 10 11 13 14 13 12 13 16 18 19 19 18 19
2 4 4 2 3 4 5 6 4 5 5 7 6 6 12 14 14 25 33 24 20 25 28 29 27 22 16 13 16 16 19 20 16 15 17 15 14 13 13 13 12 10 10 13 15 17 21 23 21 20 20 20 20 20 18 17 16 15 15 15 14 14 13 12 10 8 7 7 8 8 7 8 10 11 9 8 8 8 11 14 13 10 12 17 17 13 13 14 13 14 14 17 20 21 22 21 22
3 3 2 2 3 5 4 5 5 4 3 7 5 6 11 15 13 20 28 22 18 24 26 28 24 16 13 14 17 18 20 19 16 17 19 17 16 15 15 14 14 11 10 12 14 17 22 24 22 19 17 18 19 19 19 18 16 15 15 14 14 14 13 12 11 9 7 6 7 7 8 11 15 14 9 7 9 9 11 14 13 11 12 17 19 14 12 14 15 16 17 19 22 24 25 25 24
3 2 1 2 3 6 6 4 5 4 1 4 4 8 14 16 14 20 24 16 17 23 21 22 18 9 12 13 17 19 19 17 16 19 20 19 18 17 17 16 15 13 11 12 13 16 21 24 23 20 17 16 17 18 19 19 17 16 15 15 15 14 13 12 11 9 7 6 6 6 7 10 13 12 9 9 12 13 14 15 12 11 11 14 17 16 15 16 18 19 20 20 21 24 27 26 25
3 2 1 3 2 5 6 3 4 4 0 4 6 8 15 18 15 19 20 15 20 25 19 19 16 10 11 13 16 19 18 16 16 19 21 20 20 19 19 18 16 14 12 12 13 14 19 22 23 21 18 16 16 17 18 19 18 17 16 15 14 14 13 12 11 9 6 5 6 7 9 10 9 9 11 13 15 16 15 14 13 13 12 13 15 17 17 18 20 20 22 23 22 24 27 27 26
2 3 2 3 2 1 4 4 5 3 1 3 5 6 12 15 12 12 13 12 16 19 16 17 17 14 12 13 15 18 18 16 15 19 21 22 22 21 21 20 18 17 14 13 13 13 16 20 22 20 18 17 16 16 17 17 18 18 17 16 15 14 13 13 12 11 8 6 6 7 10 10 10 12 14 14 15 16 15 13 13 14 15 15 15 16 17 18 20 20 22 23 22 24 28 29 28
2 4 4 4 3 3 6 4 5 4 2 2 4 6 8 7 8 8 9 9 12 15 15 18 18 16 13 13 16 19 19 16 15 18 20 22 24 24 23 21 19 19 17 15 15 14 14 17 20 20 19 17 16 15 16 17 17 18 18 17 16 15 14 14 13 13 11 9 7 7 9 10 12 13 13 14 15 14 13 13 13 15 16 17 17 18 19 19 20 20 21 22 22 23 27 29 29
3 4 7 7 6 6 6 4 5 4 4 3 4 5 6 6 10 11 8 7 11 13 13 18 19 16 16 17 19 20 19 18 17 18 20 23 25 25 24 23 23 22 20 17 16 16 14 14 17 19 18 17 16 15 15 16 17 18 18 18 17 16 15 15 14 14 13 12 10 10 10 11 12 13 13 15 15 13 13 13 14 15 17 18 19 20 21 20 21 20 20 21 22 22 25 28 30
2 4 6 6 5 4 4 2 2 1 4 3 3 1 5 8 12 10 5 8 12 12 10 17 19 16 18 20 20 21 20 20 20 20 21 23 25 26 27 26 25 23 21 19 19 17 14 13 14 16 17 16 16 16 16 16 17 17 18 18 19 18 16 16 16 15 15 14 13 12 12 12 12 13 14 15 16 16 18 18 19 19 19 20 21 22 22 21 21 21 20 20 21 22 24 28 30
2 3 4 5 5 5 4 2 2 1 3 4 2 3 3 5 9 5 3 9 14 11 9 11 11 10 15 20 21 21 21 21 22 22 23 23 25 27 28 28 27 24 22 22 21 19 15 13 13 14 15 16 16 16 16 16 16 17 17 18 19 19 18 17 17 17 16 16 16 15 14 14 13 14 16 18 20 22 25 25 25 23 22 22 22 22 22 22 22 21 20 21 22 23 25 27 29
3 3 6 6 5 4 3 4 2 1 2 4 2 3 2 5 9 4 3 6 11 10 9 9 7 3 6 11 15 16 18 20 22 23 24 24 24 26 28 29 27 26 24 24 23 21 18 15 13 13 14 14 15 16 16 16 16 17 17 18 18 19 20 19 19 18 17 17 17 17 16 15 14 15 17 20 23 26 28 28 26 24 23 22 22 21 22 22 22 21 21 22 23 24 25 26 29
4 6 7 5 5 5 4 4 2 3 2 5 5 4 3 4 7 7 3 2 7 8 7 8 9 7 3 2 4 8 12 16 20 22 24 24 24 25 28 29 29 29 27 26 26 24 21 17 14 13 13 13 14 15 16 17 17 17 18 18 19 19 20 20 20 20 19 19 18 18 18 17 17 17 19 22 24 23 22 21 20 20 21 21 20 20 21 22 22 22 22 23 24 25 26 28 29
8 6 6 5 5 5 3 3 3 3 2 7 6 6 4 3 6 6 4 4 5 5 7 8 11 15 14 12 11 10 10 12 17 21 24 25 24 25 28 30 31 31 30 29 29 27 24 20 16 14 14 14 14 14 15 17 17 18 18 19 20 20 21 21 21 20 20 19 19 19 19 20 19 20 21 21 19 15 14 16 16 16 17 18 18 18 18 19 20 21 22 22 24 26 27 28 29
7 4 4 3 3 4 4 3 3 1 5 6 4 3 3 4 6 5 5 7 6 5 6 8 11 21 26 22 18 16 15 13 15 19 23 24 24 25 27 29 31 33 34 33 32 30 27 23 18 15 14 15 14 14 15 16 17 18 18 20 20 21 21 21 21 21 20 20 20 20 20 21 21 21 20 16 11 11 13 14 15 15 15 15 16 16 16 17 18 19 21 22 24 26 28 29 30
4 4 5 4 2 3 3 3 0 2 6 4 2 3 2 5 8 10 14 14 10 8 11 14 17 25 31 25 19 19 18 17 16 17 19 22 23 22 24 27 30 33 36 36 35 33 30 26 22 18 15 15 15 15 15 16 17 18 19 20 20 21 21 21 21 22 22 21 20 21 21 21 21 20 18 12 9 12 14 14 14 15 15 16 16 16 16 17 18 20 21 22 23 26 28 30 31
4 4 5 4 2 0 3 3 1 3 5 3 2 3 2 4 6 11 16 18 17 16 19 22 23 26 29 26 24 23 22 20 19 19 19 20 22 23 26 28 28 30 34 38 38 36 33 29 25 21 17 16 16 16 16 17 17 17 19 19 20 21 21 20 20 21 22 22 22 22 22 21 20 19 16 13 12 13 14 15 15 15 15 16 16 17 17 18 19 21 22 23 24 25 27 29 31
4 3 5 4 4 4 4 4 3 4 4 3 2 1 3 4 4 8 12 17 22 21 21 21 22 24 26 28 29 27 25 22 20 20 20 19 21 22 26 27 26 27 30 35 40 39 36 33 29 24 20 17 17 17 16 17 17 17 17 19 19 21 21 21 21 21 22 22 22 22 22 21 20 19 17 16 15 15 16 16 16 16 15 15 15 16 16 17 18 20 22 24 24 25 26 28 30
2 2 4 2 4 5 2 3 4 1 3 3 2 3 5 4 6 10 11 15 20 19 20 22 25 27 27 28 27 25 24 23 21 20 18 17 18 22 26 28 29 29 28 30 36 41 41 37 32 27 22 19 19 18 17 17 18 17 16 17 19 20 22 22 22 23 23 23 22 22 22 22 21 20 19 18 18 16 17 17 18 17 16 15 15 16 16 16 17 18 19 20 21 22 24 26 26
1 2 3 4 4 6 3 1 1 3 2 4 3 5 5 3 7 10 8 11 14 13 14 18 23 26 24 22 20 19 23 26 25 21 17 14 15 20 25 28 29 30 30 29 30 36 42 40 33 29 25 22 21 20 19 19 19 18 17 17 18 20 22 22 23 24 24 24 23 22 22 22 22 21 20 19 18 17 17 18 19 18 17 16 16 16 16 16 16 17 17 17 17 18 21 23 23
5 3 5 3 2 4 3 0 3 3 3 5 2 6 4 1 4 7 6 7 11 9 7 10 16 19 19 18 16 17 22 27 27 23 17 13 13 19 25 26 26 28 30 32 32 31 37 40 36 32 29 25 23 21 21 21 21 19 18 17 18 20 22 23 23 24 25 25 24 23 22 22 22 21 21 19 18 17 17 18 19 19 18 17 17 16 16 16 16 16 17 17 17 17 19 21 21
4 3 4 3 2 1 2 1 1 1 3 5 4 5 4 5 5 5 7 9 10 9 7 6 11 17 17 15 14 16 20 24 27 25 19 15 15 20 25 24 23 26 30 33 34 32 32 37 38 35 33 29 25 24 23 23 22 20 19 18 19 20 22 23 24 24 25 25 25 24 23 22 21 20 19 18 17 16 16 18 19 19 19 18 17 17 16 16 16 16 17 17 18 18 18 19 20
3 2 2 2 2 3 2 2 3 2 2 4 4 4 3 6 6 6 11 14 11 11 10 6 11 18 18 13 14 18 18 20 24 27 25 20 18 22 26 25 24 27 32 33 33 34 31 33 37 37 36 32 28 27 26 25 24 22 20 19 20 20 22 24 24 24 25 25 25 25 24 23 21 19 18 16 16 16 16 18 19 20 20 19 17 17 17 17 16 17 17 18 19 19 19 19 20
3 4 4 2 1 1 1 1 2 3 2 2 4 6 5 5 6 9 12 12 9 11 10 8 14 20 19 15 16 20 21 21 22 26 28 26 23 26 29 27 28 31 33 33 33 34 33 32 36 38 38 35 31 29 28 27 26 24 22 21 20 21 23 24 25 25 25 26 26 25 25 23 21 19 17 16 16 16 17 18 20 20 20 19 18 17 17 16 16 17 17 18 18 19 19 19 20
6 6 7 6 4 3 1 3 1 2 3 4 3 9 8 5 5 7 9 9 10 12 10 9 17 21 19 20 21 23 26 26 26 28 30 30 30 32 32 30 33 35 34 32 32 33 33 32 36 40 40 37 34 32 31 30 29 27 24 22 21 22 24 25 25 25 25 26 26 26 25 24 21 19 17 17 17 17 18 19 20 21 20 19 18 17 16 16 16 17 17 17 18 18 19 20 21
Wind_Direction
355 350 338 353 6 16 42 63 77 19 67 82 360 37 342 325 359 359 349 354 360 336 353 348 352 17 16 48 84 101 72 62 114 45 333 327 356 354 351 346 326 331 322 339 352 352 358 357 358 360 3 10 9 9 5 359 353 345 341 329 314 292 272 248 237 236 234 230 228 228 230 230 232 233 228 225 217 217 217 216 216 216 218 218 217 213 212 213 207 208 214 215 220 223 223 229 240
1 2 352 355 19 51 62 54 93 357 57 73 343 75 316 325 18 356 324 330 320 328 350 6 22 30 30 60 64 69 41 28 19 0 347 349 1 354 351 348 326 316 306 317 339 342 349 348 350 354 358 3 5 6 3 358 352 347 344 334 325 311 297 266 246 244 241 237 234 231 233 233 236 238 235 235 229 226 224 222 221 220 222 221 217 213 213 214 214 215 221 220 221 227 229 236 248
4 7 6 19 49 62 64 40 87 62 73 92 320 296 334 357 345 308 298 298 321 342 5 15 23 20 17 39 30 38 21 18 17 4 1 358 358 357 351 344 335 324 316 310 323 330 335 338 339 341 346 351 355 0 1 358 352 350 348 341 332 318 309 289 267 257 250 245 241 238 238 237 239 240 239 241 237 235 234 232 230 229 229 230 225 219 221 217 218 221 226 228 224 229 237 251 261
9 10 12 81 70 49 56 40 107 99 102 131 81 316 340 315 300 289 313 320 341 4 18 11 18 10 7 35 8 8 10 8 18 6 359 2 1 358 350 344 340 327 323 312 317 321 324 326 324 326 329 334 341 349 356 356 351 350 352 351 343 330 316 302 289 277 263 254 249 245 243 242 242 241 241 244 244 244 245 243 241 241 239 240 234 226 230 227 226 229 231 238 239 241 248 256 259
12 24 27 96 79 45 81 66 97 81 132 165 113 315 310 254 275 292 328 351 12 17 23 16 14 351 2 46 10 13 3 1 12 2 359 4 2 6 6 1 358 348 338 324 322 320 317 316 314 316 316 320 325 334 344 349 348 345 347 350 350 345 332 316 302 290 279 269 260 254 250 246 244 244 243 244 246 246 249 251 251 251 250 251 246 235 236 238 240 242 241 244 246 249 249 247 245
10 46 49 77 77 72 87 67 82 68 154 160 112 280 293 273 294 311 338 1 22 23 27 24 8 332 338 9 4 10 360 359 1 360 1 359 3 21 18 10 8 3 355 346 340 335 327 316 309 309 309 312 313 320 328 336 340 340 338 340 345 347 343 334 320 304 291 282 274 267 260 254 249 247 244 243 244 246 248 249 252 253 253 254 254 250 247 247 249 249 247 245 243 244 242 240 238
8 52 48 69 64 56 81 87 116 91 163 158 140 235 278 302 324 332 354 4 9 14 19 16 4 344 353 352 352 0 359 0 3 1 357 360 12 14 6 4 7 5 2 357 355 352 344 332 320 311 308 307 306 311 315 323 329 332 331 331 333 338 342 340 333 318 303 291 282 275 268 264 259 253 247 245 244 245 248 247 249 251 253 253 253 253 251 249 249 250 248 244 239 233 234 239 241
18 66 62 76 49 37 85 94 126 151 174 179 178 220 284 327 342 356 7 6 346 346 358 5 9 42 352 338 331 10 21 18 12 7 0 4 8 0 357 1 1 2 2 356 355 354 351 345 336 326 318 312 306 304 307 312 315 321 322 323 324 326 332 334 334 327 316 303 291 281 272 268 264 259 251 247 246 246 248 248 249 250 251 252 252 250 249 247 243 241 238 236 233 230 231 236 241
34 71 69 81 71 55 66 70 97 191 217 247 235 297 342 347 351 17 357 350 336 330 351 3 14 53 312 324 331 35 35 20 9 9 10 3 356 355 355 355 355 358 357 350 347 345 347 345 341 337 332 325 317 309 304 305 306 309 311 313 316 317 321 323 327 327 323 313 301 290 279 272 265 262 254 248 245 246 249 252 253 253 253 253 252 248 247 248 241 235 232 231 232 233 234 236 242
38 56 77 85 75 72 49 57 48 270 247 273 299 316 350 351 347 27 357 333 343 333 354 6 11 9 328 313 350 43 26 7 359 355 3 359 353 355 353 353 352 351 350 345 340 337 338 337 336 335 334 332 326 317 307 304 303 303 303 304 306 308 311 313 317 320 321 318 311 300 288 277 268 263 258 252 246 244 247 253 256 256 257 254 252 250 249 248 244 238 234 235 238 239 240 245 248
35 37 77 80 62 77 92 149 322 281 274 315 326 320 346 345 334 17 355 340 343 334 350 4 2 352 341 325 353 28 9 3 0 353 356 355 355 357 356 356 351 349 347 342 335 330 329 327 328 328 330 330 328 323 312 305 303 303 301 300 299 301 303 305 308 311 315 315 314 309 299 287 274 265 259 256 252 247 246 250 256 257 259 257 255 253 251 249 245 243 241 239 240 243 243 247 250
47 9 62 76 84 107 149 144 310 283 299 337 9 341 346 341 348 2 341 329 335 338 353 359 350 341 345 340 347 357 355 360 2 359 356 351 355 356 354 352 348 347 344 342 337 329 324 321 321 322 323 323 325 326 322 315 310 311 309 304 299 296 297 299 301 302 306 309 311 310 306 299 286 273 262 257 254 252 250 251 255 257 260 261 260 256 255 255 250 245 247 244 240 243 246 249 252
65 26 72 87 99 121 134 87 305 300 318 303 209 339 347 338 69 359 331 320 326 350 360 351 337 334 340 332 346 355 355 357 358 358 355 353 354 350 348 345 343 342 339 338 335 329 323 321 322 321 321 320 319 320 322 322 320 320 319 314 306 299 296 296 298 299 300 302 304 306 308 305 299 288 272 260 254 253 252 253 254 257 259 260 262 261 261 264 262 257 257 257 250 248 250 251 250
56 79 82 112 44 85 131 37 308 351 291 253 286 343 347 340 326 346 341 332 333 1 357 355 355 340 322 333 347 354 353 354 355 354 354 356 354 351 350 344 338 338 336 332 331 329 322 321 323 320 319 320 318 315 315 318 322 323 320 318 312 305 299 296 297 297 298 298 299 302 304 306 304 300 289 272 259 253 251 253 253 255 257 258 260 262 264 265 267 267 267 267 260 254 254 256 254
55 68 81 106 36 36 163 198 152 128 240 259 11 341 344 348 341 340 349 332 321 352 353 18 27 7 332 332 340 349 350 350 348 346 349 351 349 348 347 344 340 339 337 334 335 337 336 332 331 327 320 317 318 317 314 314 320 321 318 317 313 307 302 298 295 295 297 296 297 298 299 301 302 300 298 289 272 258 252 252 253 255 257 258 257 258 261 261 263 264 264 263 259 257 258 262 264
48 61 77 76 46 357 180 180 114 134 249 254 347 347 348 345 355 349 346 326 308 344 357 28 34 21 353 342 341 346 344 340 339 338 340 342 343 345 346 346 345 341 338 335 336 341 345 343 340 337 330 322 318 317 315 314 315 313 312 313 312 307 302 299 296 294 295 297 297 296 297 297 299 298 296 294 288 273 260 254 255 256 257 259 259 257 258 259 260 260 258 256 255 255 258 262 263
36 60 68 60 109 224 200 187 161 169 275 272 324 351 350 325 349 351 344 330 316 343 10 32 32 23 3 352 346 340 334 333 332 332 338 344 347 351 350 349 348 346 344 339 335 336 337 338 339 339 337 330 321 317 314 310 309 307 305 307 310 308 301 298 297 296 296 297 296 295 296 297 298 298 295 292 291 286 273 264 261 259 258 258 260 261 261 258 256 253 252 253 256 257 260 263 263
34 89 78 72 153 224 184 183 192 184 281 288 320 339 335 315 336 345 348 333 331 347 16 17 10 12 5 353 344 335 334 335 332 334 341 348 348 350 352 352 352 351 353 351 342 334 328 326 327 331 334 331 327 323 317 313 312 311 307 301 304 309 304 296 295 297 298 298 297 296 296 298 299 299 297 291 287 286 280 272 267 264 261 257 257 260 260 257 253 251 250 254 257 258 260 263 262
48 105 85 134 197 228 226 212 215 200 290 297 314 326 315 309 321 340 344 318 330 345 2 358 352 354 355 349 345 340 339 338 337 339 342 346 346 347 352 353 354 356 357 357 353 343 333 326 322 321 322 320 321 321 319 319 318 317 315 305 299 305 306 298 294 295 298 299 298 297 297 299 303 304 301 295 289 284 280 275 270 267 264 261 259 256 252 252 254 252 252 255 257 259 260 259 256
36 78 86 224 218 260 277 260 255 268 293 300 310 314 305 311 320 331 327 311 323 325 340 344 342 346 348 347 348 345 344 345 343 341 342 346 349 352 354 353 357 360 358 358 357 352 345 340 334 328 322 317 316 315 315 316 317 318 317 312 303 303 306 302 296 294 295 297 299 298 299 303 307 309 305 300 295 287 282 277 274 272 268 266 259 250 247 251 255 256 255 256 258 262 259 253 254
4 66 144 218 206 272 288 285 286 286 290 291 300 306 307 322 329 319 326 334 315 313 345 345 340 344 344 345 350 348 349 355 351 347 348 350 355 357 354 355 359 359 357 359 355 353 351 349 345 340 333 328 324 320 317 316 318 319 318 316 308 305 307 306 300 295 294 293 296 298 300 305 310 313 308 303 298 292 288 281 278 275 270 269 260 247 247 252 256 259 258 258 261 264 261 256 255
358 29 174 206 144 245 292 306 306 298 293 291 294 297 304 317 322 315 307 272 277 304 340 349 347 344 340 345 351 351 356 360 357 355 355 356 358 357 355 356 358 356 356 357 354 352 350 347 344 341 336 332 328 323 320 318 318 319 320 319 314 307 304 308 307 299 295 294 295 297 301 306 310 314 312 307 299 293 289 284 280 276 271 271 266 253 248 249 252 257 259 261 263 262 262 258 256
353 319 247 336 88 262 296 309 310 305 295 289 285 284 294 306 315 313 279 263 287 311 337 349 348 340 337 349 352 354 2 360 359 359 358 360 358 357 359 357 355 356 357 354 352 350 348 347 343 340 337 331 326 320 317 314 312 313 315 316 316 311 304 304 306 304 301 300 300 300 301 305 308 313 314 311 303 295 291 287 280 277 274 264 257 258 260 257 252 257 263 262 260 258 258 257 258
36 326 314 336 314 290 303 312 312 308 297 290 290 285 287 291 295 299 287 287 322 358 1 351 345 337 341 355 353 355 1 358 2 2 359 357 355 358 359 357 356 355 354 351 350 351 351 350 348 345 342 338 333 327 319 313 309 307 307 308 309 310 308 300 296 297 297 298 299 299 299 301 305 310 313 313 308 300 294 290 283 277 272 254 240 248 264 270 264 258 258 256 253 253 252 253 253
49 328 313 322 310 305 312 318 319 320 318 311 302 282 286 290 275 272 272 270 85 74 2 354 345 335 350 357 351 352 356 0 7 2 358 355 354 357 355 354 355 353 352 353 354 355 354 352 351 348 346 345 345 341 334 326 317 312 309 305 300 299 304 301 292 285 286 292 294 295 295 296 301 305 308 310 308 302 295 292 287 277 271 259 247 249 260 270 278 264 248 250 250 246 245 245 241
12 307 309 309 308 315 319 323 334 338 332 327 307 286 299 296 268 263 229 182 157 176 358 359 353 337 360 360 350 351 356 4 7 358 355 354 351 348 350 353 352 351 352 354 355 353 354 352 350 348 348 348 349 348 346 340 331 324 318 312 302 292 292 295 293 285 283 288 293 294 292 291 294 298 300 301 302 298 292 287 283 277 269 255 246 252 257 260 268 261 244 250 252 245 241 237 232
324 313 309 300 306 314 317 325 346 349 334 328 311 288 300 282 230 253 198 182 198 210 346 0 7 357 9 360 350 351 354 2 1 355 351 347 346 345 349 351 348 350 352 351 350 349 350 349 347 346 346 346 347 348 349 347 342 335 328 323 314 301 289 286 288 285 283 289 296 296 291 288 289 292 294 296 298 292 287 286 283 279 266 241 235 241 243 245 252 245 235 244 250 247 237 233 230
324 325 315 307 323 323 316 337 350 357 343 326 319 292 303 248 211 219 181 183 215 237 333 2 22 84 37 5 346 333 331 348 351 345 342 339 342 346 345 345 346 349 351 350 348 347 346 344 344 343 342 342 343 345 347 348 347 342 335 330 325 317 304 291 286 282 280 289 298 299 293 284 283 289 293 297 300 294 290 290 286 277 256 241 242 237 228 229 235 229 228 237 244 244 238 239 235
322 352 330 315 345 340 326 2 354 354 345 340 343 310 318 228 232 193 168 197 229 258 324 359 27 127 131 19 303 254 296 318 327 326 327 334 338 338 335 339 347 348 350 352 351 350 348 346 343 341 339 338 339 342 346 348 348 346 340 334 330 326 320 307 296 287 281 284 293 299 294 280 278 288 293 301 307 304 297 289 286 273 248 251 253 234 218 217 221 224 228 232 240 242 236 237 232
310 17 43 331 355 318 329 16 348 349 2 2 11 328 296 273 243 194 169 268 252 299 322 343 17 131 184 136 235 239 266 293 300 306 310 322 328 325 330 339 347 348 353 356 353 351 350 349 345 342 340 337 339 341 343 347 348 348 344 338 332 328 327 322 308 295 285 280 282 288 290 281 279 288 299 314 317 313 304 289 284 268 243 244 235 224 227 226 225 227 227 230 241 245 236 228 217
332 3 32 21 16 271 318 5 353 359 5 10 35 206 277 275 268 266 269 298 321 321 320 323 340 101 203 205 207 236 248 274 284 290 296 307 317 320 329 337 342 346 351 351 349 350 352 354 351 348 346 343 343 343 344 347 348 349 348 343 336 329 328 327 319 303 288 277 274 277 281 272 269 295 318 322 317 313 308 288 274 261 235 224 218 222 232 229 229 234 232 233 235 235 237 222 208
29 353 313 358 167 269 317 349 24 21 311 2 52 210 278 279 287 292 262 306 323 319 313 310 315 306 213 213 210 228 241 258 270 278 285 293 306 315 322 327 332 341 348 349 349 351 354 357 356 352 350 350 351 350 348 349 351 352 351 349 343 334 331 330 327 313 292 282 280 280 278 264 253 325 325 321 320 317 310 287 263 257 233 212 215 223 225 230 238 239 236 236 233 227 232 221 211
11 74 245 280 212 283 322 340 41 33 310 349 48 214 282 284 292 296 282 304 313 310 302 300 304 301 237 212 216 221 236 246 255 265 270 279 293 300 306 312 314 330 350 353 353 354 355 357 357 354 351 352 355 353 350 350 352 355 353 354 350 342 339 338 339 331 312 308 310 304 286 267 256 334 325 322 326 322 313 291 262 251 238 220 230 231 232 251 254 241 234 235 236 233 234 229 222
327 39 192 249 215 227 303 316 3 17 7 333 11 213 264 272 281 286 287 301 307 301 294 291 296 296 261 216 216 216 232 240 248 257 258 264 275 281 289 296 298 313 346 354 357 358 357 357 355 354 353 351 351 351 350 349 351 355 355 355 355 352 346 345 353 355 344 344 342 330 311 282 276 301 313 324 329 326 317 300 280 256 238 226 243 242 236 243 243 242 240 236 236 238 236 234 231
251 233 198 279 272 224 255 272 330 13 11 312 321 273 268 273 283 289 292 303 300 290 287 288 290 288 267 223 211 215 230 237 245 253 252 253 259 268 277 283 286 300 337 350 354 357 359 358 354 352 351 349 347 349 350 348 349 353 356 355 356 356 352 348 352 2 4 5 0 346 324 298 288 284 284 295 321 329 319 305 291 265 240 233 243 245 238 236 234 236 238 237 236 237 237 235 233
168 181 166 224 274 257 240 247 279 19 348 291 280 269 275 281 286 288 293 302 294 283 285 286 286 281 261 221 205 214 229 237 246 249 248 248 250 260 267 272 278 291 327 343 347 353 358 359 355 350 346 344 344 346 348 349 350 352 354 355 354 355 355 351 347 351 1 7 5 352 324 298 284 281 281 277 293 316 311 301 289 268 251 243 238 238 243 242 242 240 241 244 240 235 234 234 235
102 146 165 218 242 270 259 264 299 26 332 274 279 291 283 281 281 282 289 298 286 278 282 285 286 274 242 211 201 213 230 240 243 243 246 248 247 254 261 265 271 283 314 332 341 351 353 353 354 351 345 341 341 341 344 348 351 352 353 353 351 352 355 353 349 345 348 353 349 339 319 300 281 269 266 272 288 298 291 288 283 272 261 246 235 232 244 251 255 257 254 249 243 237 230 226 231
71 137 242 259 219 263 260 260 311 24 16 268 344 328 292 285 284 284 288 290 277 274 273 279 286 260 218 201 200 213 232 240 236 240 245 245 247 251 257 261 264 275 298 317 333 346 346 346 349 351 349 345 342 339 340 345 350 352 351 350 348 348 351 350 349 347 348 350 343 338 320 305 291 277 269 277 293 298 286 275 271 268 259 245 239 245 259 267 266 263 260 253 247 244 235 227 230
82 131 175 266 244 282 288 293 327 20 142 274 350 341 294 289 287 285 288 278 274 279 271 270 280 260 215 196 201 215 231 239 235 241 245 244 248 250 255 261 262 268 285 302 319 334 339 342 345 350 351 348 346 342 341 342 346 350 349 348 345 342 344 342 342 344 348 345 330 327 315 301 301 305 300 296 300 300 285 266 262 266 258 248 247 253 263 270 268 266 265 261 252 243 234 228 227
132 155 163 258 259 324 286 302 327 342 132 276 327 323 287 292 296 291 297 289 280 283 275 270 271 257 222 198 207 219 230 242 242 245 246 245 246 250 256 261 261 265 275 287 302 316 330 339 343 349 351 350 349 346 344 341 341 345 344 344 342 338 337 333 333 334 334 330 307 301 306 303 299 301 302 304 304 294 271 250 256 265 260 254 253 259 267 266 265 268 266 261 253 240 230 225 221
257 192 181 227 231 216 238 287 327 326 17 351 334 319 285 303 324 304 312 321 296 285 280 274 261 241 225 211 214 222 231 244 251 253 251 248 250 253 257 260 261 264 269 278 289 300 317 333 341 348 351 350 349 347 347 344 340 339 339 340 339 335 333 328 327 327 324 320 304 284 284 291 292 292 294 296 294 281 260 248 251 254 252 252 252 260 268 266 265 267 265 261 255 245 234 228 222
299 231 203 216 223 234 256 319 354 1 348 334 17 348 288 311 316 290 301 330 303 292 281 269 257 234 224 220 217 224 233 241 254 262 259 254 253 255 255 257 261 263 266 273 282 291 305 322 337 346 349 350 349 348 348 345 340 337 334 335 335 333 331 326 321 318 315 309 300 285 274 272 277 282 287 285 277 268 263 262 260 258 256 256 256 261 265 266 265 265 265 261 255 249 240 234 229
312 249 200 206 207 218 251 302 20 6 274 282 74 100 269 310 303 283 315 326 300 297 276 260 259 238 223 223 222 226 232 239 251 261 262 257 254 254 255 257 261 264 264 268 276 285 295 309 327 341 347 350 350 348 347 344 340 335 332 331 330 330 328 325 320 314 310 307 299 288 277 269 265 270 274 274 270 266 265 263 264 265 263 260 259 261 262 262 263 263 264 260 252 246 240 238 236
231 243 147 152 172 192 204 118 85 223 270 307 56 154 230 301 287 275 16 317 301 303 287 269 264 234 219 223 226 230 236 241 249 257 261 261 257 255 257 260 263 264 262 265 272 278 287 298 315 331 342 349 351 349 345 341 338 334 330 327 325 325 325 323 320 315 310 307 302 295 285 274 264 260 262 265 267 267 266 264 266 264 261 259 258 259 259 257 258 262 261 253 246 242 239 238 239
235 187 116 131 150 160 134 92 79 41 17 311 276 157 217 267 273 296 26 307 294 292 282 278 282 261 212 219 226 234 242 245 249 254 257 260 261 261 262 263 263 261 260 263 267 271 278 288 302 318 333 343 347 348 344 339 336 333 328 325 323 321 321 320 318 316 312 308 303 299 293 285 275 266 263 263 262 264 266 267 268 264 259 256 255 255 255 252 253 257 255 246 242 242 241 240 239
179 131 91 82 84 77 72 85 83 51 36 265 232 181 225 267 279 298 341 278 271 273 269 271 288 314 346 312 259 251 253 253 253 254 256 259 264 265 262 261 261 259 258 261 264 266 271 279 290 306 320 330 338 343 343 339 335 332 328 323 321 319 317 317 315 314 312 309 305 301 298 293 286 277 271 269 270 269 266 265 265 263 258 253 251 252 252 251 251 252 251 247 246 244 242 241 239
141 109 63 47 38 41 41 61 65 54 279 264 238 195 207 271 279 267 244 219 228 260 288 292 304 316 319 319 318 308 292 276 265 260 260 260 262 263 260 259 260 259 257 259 262 263 266 271 280 295 306 315 326 333 337 337 334 332 330 323 319 318 315 314 313 313 310 307 304 300 297 294 288 283 279 278 279 275 262 259 259 256 255 251 249 252 254 255 255 252 248 245 245 244 241 241 239
128 88 79 66 357 13 18 4 45 90 249 266 260 203 188 238 259 257 256 257 234 227 272 288 301 305 306 307 308 308 306 297 281 269 264 262 264 263 260 262 263 260 258 259 261 262 262 265 271 283 295 302 313 323 328 332 331 330 330 325 319 317 315 313 313 312 309 305 301 297 295 293 289 288 289 286 278 267 260 258 256 253 252 251 251 254 257 260 261 260 253 245 242 240 239 239 239
102 94 105 88 342 357 352 313 23 225 249 262 203 172 189 236 257 273 272 273 265 241 252 267 279 288 295 300 302 302 300 296 289 279 272 266 262 261 265 271 272 265 262 262 261 261 260 261 265 273 285 292 301 313 320 324 326 326 329 326 319 316 315 313 313 312 310 305 301 297 295 293 291 291 295 290 267 262 263 260 255 253 252 253 255 255 257 260 261 264 261 252 244 239 237 238 239
146 142 137 127 131 125 282 269 281 264 267 290 191 178 258 260 260 259 258 268 278 274 269 270 274 281 289 296 297 298 297 294 291 288 283 275 267 268 277 283 281 273 269 266 262 260 258 258 260 267 276 281 290 302 310 316 318 320 326 326 319 315 314 313 312 310 309 307 303 300 297 294 291 291 291 285 267 261 265 265 262 258 255 255 256 257 258 258 260 262 261 256 248 241 238 237 237
182 164 137 141 152 165 216 220 220 253 279 303 274 207 203 206 239 247 246 266 277 279 280 281 281 281 289 296 297 300 302 299 297 293 289 291 294 295 299 301 298 292 282 271 264 260 258 256 256 263 272 274 281 292 300 308 310 310 319 322 317 313 312 312 311 308 307 306 304 301 298 294 291 288 284 278 268 260 262 266 267 265 261 256 254 255 257 258 260 262 261 257 252 244 238 234 235
230 116 109 164 185 156 164 192 181 210 305 288 239 235 218 211 278 280 269 275 278 279 279 280 282 282 288 294 297 306 311 310 310 302 291 297 310 316 317 317 315 313 306 287 271 261 258 256 254 260 270 271 273 284 293 300 302 301 308 315 313 310 309 309 310 308 306 304 301 299 296 293 290 286 280 275 269 260 259 263 268 269 268 264 260 258 259 262 264 264 263 261 255 246 236 232 234
155 128 171 218 183 126 105 241 49 51 295 262 211 244 278 312 290 288 300 296 289 285 275 270 274 280 285 290 297 312 315 313 315 309 294 292 308 317 318 319 321 322 321 314 296 271 259 255 254 259 265 268 270 279 288 293 295 294 298 306 308 306 306 306 308 308 307 304 302 299 295 290 287 283 278 274 270 261 257 262 268 270 270 268 265 263 264 266 268 267 265 263 256 246 235 231 231
128 190 208 192 128 95 91 271 359 30 264 277 258 238 262 299 265 299 340 310 291 289 282 280 281 281 283 284 293 311 315 313 314 310 299 293 306 316 316 315 317 320 321 321 317 293 265 254 254 259 262 266 271 275 280 286 290 290 291 299 303 302 302 303 304 306 306 304 302 298 294 288 284 280 276 271 268 262 257 261 268 271 272 272 269 268 269 270 270 269 265 260 254 244 235 230 229
132 177 179 132 140 159 88 144 230 284 263 287 288 257 239 203 227 295 298 274 275 280 283 293 283 276 276 278 290 307 315 315 314 311 303 293 299 312 312 306 306 313 315 314 314 307 279 256 253 258 262 265 268 269 274 282 285 285 286 293 297 298 299 299 300 303 304 304 302 298 295 289 284 280 275 269 265 261 258 260 266 270 271 272 271 270 271 272 272 268 264 258 252 244 235 229 227
78 121 143 90 149 170 142 142 164 186 261 291 301 297 245 218 212 217 242 251 253 264 271 264 262 266 267 270 291 304 309 315 315 313 307 295 292 306 308 301 300 308 311 309 308 307 292 264 252 255 260 264 266 268 273 279 282 281 282 288 292 293 295 296 297 300 302 303 302 299 296 291 286 281 275 268 262 258 257 258 263 267 269 270 271 270 269 270 270 267 262 255 250 245 236 228 226
147 164 181 183 136 117 133 169 127 136 184 249 295 287 248 226 219 205 229 251 243 246 259 254 260 269 271 277 297 305 305 307 309 309 306 297 291 300 302 297 298 305 307 306 305 305 299 277 260 256 259 262 266 270 273 276 278 278 279 284 288 290 291 293 294 296 299 301 301 299 295 291 286 280 273 266 259 254 254 256 259 263 266 269 270 269 268 266 265 264 260 253 247 243 237 230 225
180 187 197 190 165 116 131 255 251 115 185 184 230 277 262 220 215 209 228 250 242 240 246 254 264 272 282 291 300 307 306 303 301 302 302 297 292 295 298 295 298 303 304 303 303 303 301 290 273 261 257 260 266 269 273 275 275 275 277 280 283 286 288 289 291 293 296 298 298 297 294 290 285 279 271 261 255 252 251 254 258 262 266 268 268 268 266 264 262 261 258 252 246 240 237 232 228